CAPE
298 230 273 480 263 58 57 247 239 253 206 159 58 70 70 128 2 66 120 84 604 898 1338 1773 2205 2031 1679 1902 2005 1949 2371 2278 2284 2186 2017 1784 1654 1683 1620 1852 2467 2243 2057 2129 2715 2573 2897 1781 2689
337 182 157 116 69 58 201 348 361 238 185 153 77 78 27 9 120 96 60 579 697 664 1279 1546 2193 2318 1963 1750 1871 1842 1718 1958 2006 1909 1893 1860 1770 1704 1508 1520 1559 1686 2649 2220 1927 2074 2395 2634 2019
174 237 125 74 4 10 127 414 273 267 305 229 119 85 30 24 94 68 146 473 864 804 1367 1554 2496 2548 1949 1703 1708 1792 1575 1708 1889 1802 1784 1735 1611 1448 1256 1173 1252 1379 1535 1962 2439 1859 1855 2094 2161
694 48 409 37 3 21 174 566 461 221 152 62 71 64 12 0 35 102 73 759 646 1124 1229 2133 2360 1904 1931 1774 1772 1730 1669 1625 1787 1771 1670 1553 1271 1282 1481 1649 1782 1799 1628 1512 1717 2444 1929 1736 1645
395 269 344 148 25 82 157 330 422 303 370 205 19 82 78 64 44 47 231 291 744 1152 1388 1665 2442 2572 2207 1933 1756 2000 1966 1950 1821 1756 1473 1405 1857 1871 1321 1652 1591 1616 1678 1501 1469 1679 2092 2224 1965
103 313 198 268 230 251 474 339 527 294 251 196 146 146 122 97 76 70 19 407 1101 1236 1376 1596 2215 2313 2689 2177 2370 2065 1936 1931 1765 1596 1810 1791 1745 1336 1190 1197 1174 1327 1373 1529 1318 1501 1705 1685 1963
209 200 264 361 723 548 495 574 460 323 198 235 123 66 63 118 152 147 319 608 1011 1444 1462 1382 1514 1608 2306 2726 2132 2042 1869 1788 1721 1592 1479 1424 1264 1360 1443 1120 998 1280 1479 1426 1492 1511 1594 1681 1755
46 269 249 119 301 771 821 670 607 448 501 255 45 64 111 463 709 755 792 954 1155 1270 1593 1541 1295 1547 2029 1833 2002 1944 1829 1648 1519 1511 1719 1696 1604 1353 614 222 789 1031 1208 1440 1312 1525 1502 1619 1793
128 164 112 71 134 407 847 781 833 649 413 290 303 117 224 605 646 725 762 827 1130 1275 1395 1447 1354 1527 1753 1645 1575 2002 1690 1562 1755 1130 1190 418 226 122 44 40 172 974 1070 1263 1217 1391 1444 1554 1638
29 82 107 91 175 286 785 931 795 717 375 334 245 263 360 498 536 550 609 698 793 909 1107 1107 1258 1495 1451 1378 1284 1250 1516 1329 535 97 66 91 106 6 10 0 86 910 1088 1170 1148 1244 1274 1442 1296
80 59 48 170 214 487 585 807 569 585 389 207 236 306 414 486 427 506 632 586 572 622 735 887 1150 1236 1211 1070 1271 1239 684 185 11 0 0 0 0 0 0 0 0 42 715 834 741 1165 1183 1353 978
159 150 142 399 251 149 157 253 754 792 394 178 278 267 302 498 522 619 596 392 411 577 716 650 891 1182 983 963 1185 787 71 14 15 2 0 0 0 0 16 0 15 35 97 189 329 395 812 1180 886
84 107 280 295 161 707 917 668 1030 776 450 221 271 293 339 375 475 455 495 326 393 323 562 634 836 1030 910 777 976 190 11 20 2 0 0 0 3 8 22 65 41 107 97 193 238 370 507 608 656
84 114 483 371 190 854 1167 970 815 688 448 320 182 263 332 350 409 477 456 489 472 403 476 553 812 900 816 591 177 59 6 0 0 0 0 0 0 23 106 134 54 89 137 128 110 257 378 412 436
20 372 342 476 406 491 491 889 876 656 494 331 168 92 270 372 352 457 484 471 401 414 428 562 743 801 690 580 354 158 20 0 0 0 0 32 0 104 203 343 179 151 138 178 139 210 449 540 502
26 94 214 399 379 361 289 422 855 724 562 404 196 97 112 167 219 379 473 414 317 251 301 539 848 735 677 681 456 214 0 1 87 96 29 159 458 260 405 304 241 178 248 439 330 365 468 373 454
3 5 38 266 216 82 377 378 764 739 382 312 231 149 123 223 257 213 345 343 302 387 381 743 973 918 714 604 473 173 99 34 159 240 159 140 250 259 393 339 430 508 463 398 397 623 683 591 536
0 0 6 94 143 158 435 392 415 342 378 390 383 345 174 286 293 240 274 291 334 396 456 582 848 951 911 763 778 633 460 288 311 432 357 343 355 451 276 344 625 173 88 210 448 604 495 721 395
0 4 28 37 162 370 459 510 367 363 349 242 202 256 201 255 320 359 412 338 400 524 544 621 641 764 1108 1050 946 1004 856 428 418 424 455 498 471 386 650 607 481 210 55 220 368 460 211 284 610
3 19 1 19 29 175 501 526 453 469 447 280 277 291 265 317 349 348 511 594 559 638 644 715 699 1050 1294 1291 1160 1027 936 740 705 665 734 752 837 837 765 584 387 356 358 417 610 537 108 315 437
1 17 4 2 0 29 533 587 539 539 437 346 267 231 358 444 512 510 626 721 800 766 783 787 830 1134 1255 1336 1114 920 963 894 736 434 347 527 737 920 689 707 534 550 571 557 692 517 398 484 470
2 1 10 2 0 0 194 34 551 451 555 490 365 359 443 577 665 673 840 800 940 939 997 992 1011 1063 1200 1155 1038 1126 1130 668 268 613 599 622 788 547 411 321 283 449 727 828 651 666 571 769 365
16 5 0 0 0 0 0 0 179 425 412 528 497 476 505 663 919 975 1001 1023 990 1056 1327 1173 1304 1198 1246 1202 1223 1317 1278 915 823 903 918 774 666 352 1 0 75 340 521 607 1013 908 620 670 304
0 0 0 0 0 0 1 1 44 254 415 493 576 432 651 652 901 930 1077 1065 1017 1177 1488 1548 1914 1678 1371 1653 2007 1722 1478 1371 1171 1310 938 852 839 618 204 27 0 65 508 367 232 827 1080 869 736
0 0 0 0 0 0 28 151 164 182 253 515 636 494 311 247 371 573 835 913 964 1550 1689 1700 2083 2007 1818 1859 2060 2034 2035 1603 1571 1370 1032 1200 959 747 548 212 83 19 318 775 746 309 528 858 502
0 0 0 0 0 0 94 172 204 158 150 398 590 586 338 205 77 93 960 1001 918 1615 1986 2055 2093 2237 2354 2330 2375 2334 2189 2191 1734 1628 1638 1422 1185 953 762 629 476 3 41 190 924 941 840 866 559
0 0 0 0 0 0 59 87 126 168 124 323 489 442 273 200 237 184 190 385 1015 1436 1842 2162 2170 2192 2551 3005 2828 2698 2619 2464 2409 2294 2390 1737 1596 1434 1145 1046 940 864 729 494 492 797 932 1024 729
0 0 0 0 0 6 163 68 55 165 166 210 145 324 265 275 255 272 160 439 815 1487 1749 2120 2230 2377 2842 2996 3198 3030 2810 2487 2387 2500 2467 2269 1859 1216 1380 1488 1650 1669 1472 1079 1037 1054 1148 1210 1072
4 10 1 2 0 55 12 31 127 228 148 361 264 80 142 211 489 375 373 96 261 614 1496 2313 2366 2583 2849 2920 3114 2941 2426 2224 2044 1997 2021 2143 1464 1725 1822 1815 1907 1955 2041 1942 1866 1581 1419 1397 1409
11 0 2 0 31 36 41 111 349 193 130 306 320 963 584 196 292 662 545 49 6 732 1052 2506 2637 2733 2669 2535 2574 2577 2412 2150 2003 1973 1800 1466 1549 1483 589 448 224 160 419 1334 1558 1474 1209 1067 1049
CIN
-112 -114 -466 -384 -172 -46 -14 -24 -31 -41 -40 -30 -81 -77 -101 -141 -15 -92 -160 -148 -25 -1 0 0 0 0 0 0 0 0 0 0 -1 -2 -2 -2 -9 -3 0 0 0 0 0 0 0 0 0 -8 0
-93 -384 -602 -362 -154 -66 -44 -31 -75 -84 -104 -96 -111 -91 -136 -147 -174 -198 -179 -41 -33 -30 -1 0 0 0 0 0 0 0 -2 -2 0 -1 0 -3 -4 -5 -2 -1 0 0 0 0 0 0 0 0 -11
-328 -477 -510 -265 -59 -146 -54 -40 -62 -97 -56 -62 -166 -110 -118 -181 -178 -192 -112 -50 -24 -16 0 0 0 0 0 0 0 0 -4 -1 0 0 0 -2 -3 -10 -11 -16 -12 -5 -2 0 0 0 -1 0 0
-329 -567 -295 -204 -21 -37 -8 -41 -28 -79 -64 -92 -169 -150 -61 0 -144 -131 -189 -42 -52 -3 -1 0 0 0 0 0 0 0 -1 0 0 0 0 -1 -12 -15 -3 0 0 -1 0 -9 -1 0 0 -7 -6
-206 -359 -169 -84 -161 -38 -27 -75 -12 -41 -50 -60 -143 -179 -173 -23 -50 -216 -172 -93 -51 -2 0 -1 0 0 0 0 0 0 0 0 0 0 0 -2 0 0 -10 -1 -12 -5 -4 -6 -6 0 0 0 -8
-64 -231 -82 -52 -73 -28 -75 -93 -55 -62 -51 -78 -70 -96 -58 -21 -65 -57 -235 -97 -57 -17 0 0 0 0 0 0 0 0 0 0 0 0 0 0 0 -3 -12 -12 -13 -12 -7 -1 -6 -3 0 -5 -12
-116 -10 -35 -14 -24 -49 -37 -65 -68 -59 -59 -51 -59 -170 -79 -67 -127 -80 -117 -101 -65 -29 -8 0 0 -1 0 0 0 0 0 0 0 0 0 0 0 -1 -6 -19 -20 -12 -4 0 0 -1 0 -1 -10
-14 -107 -77 -39 -6 -12 -25 -30 -27 -63 -38 -51 -170 -127 -95 -13 -58 -78 -86 -66 -42 -32 -10 -7 -6 0 -1 0 0 0 0 0 0 0 0 -2 -3 -8 -49 -91 -38 -12 -6 0 0 0 0 0 -4
-129 -14 -48 -77 -89 -17 -39 -80 -94 -17 -44 -42 -31 -154 -92 -62 -75 -62 -58 -46 -19 -17 -21 -22 -15 -3 -1 -1 -1 -1 0 0 0 -9 -25 -62 -55 -68 -73 -178 -106 -21 -5 0 0 0 0 0 0
-70 -14 -27 -29 -37 -61 -59 -97 -70 -22 -33 -12 -47 -86 -77 -56 -80 -109 -125 -101 -77 -72 -43 -41 -24 -3 -1 -1 -3 -4 -1 0 -22 -69 -105 -111 -83 -24 -100 0 -142 -45 -17 -1 -3 0 0 0 -4
-41 -30 -85 -32 -70 -59 -61 -61 -39 -46 -21 -40 -105 -57 -61 -51 -106 -143 -148 -183 -165 -154 -102 -72 -37 -21 -26 -24 -11 -4 -30 -44 -61 -6 0 0 0 0 0 0 0 -120 -70 -20 -33 -5 -3 -1 -24
-15 -70 -53 -45 -54 -31 -38 -129 -48 -44 -10 -17 -75 -57 -10 -80 -103 -146 -118 -46 -145 -140 -116 -105 -83 -48 -47 -50 -24 -40 -70 -9 -3 -10 0 0 0 0 -171 -5 -67 -122 -125 -107 -75 -54 -17 -14 -42
-32 -57 -47 -66 -11 -68 -93 -34 -44 -32 -10 -30 -56 -39 -25 -10 -92 -115 -143 -127 -164 -165 -136 -99 -88 -69 -61 -80 -50 -105 -7 -2 -2 0 0 0 -146 -261 -192 -72 -79 -72 -106 -140 -88 -47 -40 -41 -50
-52 -91 -61 -68 -54 -68 -106 -100 -51 -26 -27 -15 -43 -45 -35 -21 -68 -91 -126 -132 -126 -128 -123 -147 -100 -81 -69 -96 -59 -44 -15 0 0 0 0 0 0 -191 -93 -106 -120 -80 -67 -135 -44 -64 -54 -48 -57
-3 -44 -47 -85 -105 -79 -89 -68 -82 -51 -28 -29 -50 -97 -53 -38 -80 -97 -121 -114 -113 -116 -136 -148 -123 -74 -104 -96 -59 -64 -106 0 0 0 0 -170 0 -67 -75 -90 -119 -75 -136 -103 -95 -28 -64 -37 -32
-5 -126 -50 -55 -45 -70 -89 -75 -97 -76 -36 -39 -55 -121 -63 -53 -92 -86 -110 -91 -86 -5 -136 -156 -102 -119 -102 -85 -79 -80 -21 -10 -58 -104 -159 -52 -44 -59 -62 -73 -80 -117 -75 -73 -54 -30 -38 -32 -41
-2 -8 -26 -90 -80 -105 -76 -89 -92 -96 -69 -65 -69 -101 -71 -27 -15 -43 -111 -85 -86 -26 -26 -156 -105 -124 -106 -85 -69 -82 -224 -84 -53 -45 -93 -37 -65 -55 -27 -46 -67 -40 -48 -48 -51 -43 -35 -35 -24
0 0 -2 -57 -138 -104 -71 -83 -107 -99 -85 -73 -81 -83 -91 -83 -48 -59 -55 -40 -44 -43 -29 -135 -105 -105 -106 -74 -111 -109 -97 -130 -121 -90 -73 -64 -59 -47 -62 -15 -20 -24 -128 -49 -37 -41 -44 -47 -23
0 -21 -9 -13 -154 -82 -85 -76 -55 -64 -83 -89 -78 -83 -106 -119 -70 -77 -12 -95 -43 -20 -28 -25 -139 -111 -114 -76 -57 -55 -62 -84 -34 -53 -58 -67 -59 -43 -39 -42 -26 -24 -25 -50 -43 -39 -177 -32 -49
-7 -2 -5 -17 -95 -72 -78 -68 -72 -57 -100 -110 -106 -92 -119 -205 -122 -50 -23 -171 -60 -34 -13 -39 -152 -96 -130 -84 -65 -67 -70 -57 -29 -83 -61 -33 -33 -26 -34 -44 -38 -6 -20 -52 -56 -23 -173 -124 -43
-6 -3 -2 -21 0 -37 -88 -60 -42 -54 -55 -103 -68 -114 -131 -164 -181 -95 -28 -153 -169 -95 -54 -61 -43 -124 -116 -94 -68 -70 -51 -21 -53 -78 -63 -29 -112 -42 -27 -29 -17 -34 -25 -34 -37 -43 -76 -68 -17
-21 -1 -1 -13 0 0 -46 -25 -65 -47 -56 -52 -62 -43 -121 -102 -173 -127 -50 -56 -176 -47 -187 -20 -27 -147 -92 -73 -56 -39 -35 -74 -70 -44 -37 -33 -56 -87 -105 -105 -79 -43 -27 -33 -54 -27 -52 -31 -48
-17 -11 0 0 0 0 0 0 -88 -52 -88 -60 -51 -29 -66 -120 -134 -154 -105 -85 -162 -113 -173 -47 -182 -45 -28 -111 -29 -37 -53 -63 -48 -122 -31 -84 -144 -118 -4 0 -88 -91 -43 -108 -47 -23 -25 -50 -34
-6 0 0 0 0 0 -2 -2 -62 -74 -126 -57 -35 -36 -64 -77 -99 -94 -84 -73 -102 -132 -153 -175 -152 -80 -65 -90 -46 -29 -39 -42 -69 -28 -55 -67 -101 -88 -46 -129 0 -89 -154 -119 -181 -52 -13 -24 -26
0 0 0 0 0 0 -79 -46 -100 -107 -50 -89 -55 -53 -41 -58 -55 -43 -66 -76 -86 -135 -148 -155 -150 -141 -108 -84 -69 -40 -22 -28 -38 -30 -32 -46 -114 -128 -85 -76 -321 -294 -105 -47 -64 -94 -103 -26 -56
0 0 0 0 0 0 -84 -90 -85 -109 -64 -181 -38 -36 -41 -123 -125 -336 -466 -38 -70 -147 -128 -167 -173 -144 -103 -76 -70 -39 -26 -19 -45 -40 -32 -33 -74 -89 -94 -98 -95 -378 -230 -170 -65 -57 -68 -26 -54
0 0 0 0 0 0 -182 -133 -117 -93 -253 -208 -77 -40 -36 -33 -53 -602 -545 -85 -44 -168 -125 -197 -199 -163 -97 -62 -28 -41 -22 -30 -47 -33 -10 -17 -40 -58 -75 -82 -90 -101 -111 -114 -107 -59 -65 -29 -35
0 0 0 0 0 -17 -97 -106 -31 -41 -8 -267 -153 -95 -95 -227 -34 -70 -66 -48 -49 -100 -120 -151 -192 -181 -127 -67 -25 -24 -22 -24 -12 -14 -3 -6 -11 -58 -55 -52 -40 -33 -38 -51 -35 -32 -46 -17 -16
-37 -41 -4 -15 0 -41 -41 -49 -54 -271 -425 -322 -295 -225 -404 -176 -394 -59 -59 -317 -47 -119 -63 -129 -152 -117 -73 -38 -23 -17 -24 -19 -14 -16 -11 -7 -8 -5 -10 -12 -15 -13 -12 -14 -6 -7 -10 -11 -10
-21 0 -25 0 -34 -16 -114 -41 -108 -175 -474 -577 -344 -208 -224 -320 -305 -254 -177 -433 -11 -217 -93 -134 -63 -69 -36 -15 -29 -16 -22 -9 -12 -10 -13 -15 -13 -10 -72 -96 -144 -181 -146 -23 -10 -11 -14 -23 -20
Wind_Speed
6 3 1 9 13 nan nan 5 15 17 12 15 nan nan nan 5 nan nan 13 nan 12 6 6 9 11 12 13 12 13 14 14 14 15 15 14 13 13 14 12 11 9 9 8 6 5 5 6 9 9
11 5 7 14 nan nan 12 8 10 10 13 18 nan nan nan nan 1 nan nan 17 13 6 4 8 14 13 13 14 13 13 14 14 15 14 14 13 11 10 9 9 7 5 5 5 5 6 4 5 7
9 6 13 nan nan nan 10 9 10 10 9 12 11 nan nan nan nan nan 15 17 13 6 4 7 13 14 14 15 15 14 15 14 14 14 13 14 11 9 8 7 5 3 3 3 4 6 7 5 5
3 nan 15 nan nan nan 7 5 16 12 9 nan nan nan nan nan nan 10 nan 19 13 9 8 12 14 14 14 14 15 15 15 15 14 14 13 12 11 9 7 5 3 3 2 0 1 3 4 5 5
7 4 2 11 nan nan 13 23 10 13 9 6 nan nan nan nan nan nan 20 15 13 9 8 8 13 13 13 13 14 13 13 15 13 13 13 11 9 8 5 3 3 2 2 1 2 1 2 5 2
9 10 18 19 17 27 19 18 7 16 18 9 10 3 3 nan nan nan nan 14 14 11 9 9 13 13 13 14 16 16 15 14 13 13 12 10 8 6 5 4 3 2 2 1 2 3 1 3 1
11 14 24 19 22 16 16 19 16 15 19 10 10 nan nan 18 20 16 15 13 12 12 10 7 8 13 16 16 16 19 16 15 14 12 11 10 7 5 6 3 3 5 2 0 2 4 5 5 5
nan 13 19 11 12 6 8 9 7 10 14 14 nan nan 20 16 17 15 13 12 10 11 10 9 9 8 8 9 14 19 15 14 15 14 11 12 10 4 7 6 4 0 2 0 3 4 4 6 7
11 7 12 nan 10 6 16 12 8 13 16 12 10 18 18 20 19 12 9 11 11 7 7 9 7 7 8 4 12 18 18 16 17 14 15 10 5 4 nan nan 4 1 1 2 4 5 3 4 6
nan nan 16 nan 13 15 19 21 19 11 15 8 10 17 23 23 19 21 15 13 9 11 10 9 9 9 7 5 8 10 11 15 10 nan nan nan 5 nan nan nan nan 2 2 4 8 7 3 3 1
nan nan nan 15 9 13 19 20 11 15 18 22 26 24 22 21 16 18 15 16 16 15 10 12 10 10 14 11 12 10 10 12 nan nan nan nan nan nan nan nan nan nan 3 2 6 4 1 1 1
9 18 16 17 11 10 14 11 19 15 17 22 24 24 18 17 15 15 12 10 10 12 13 12 15 14 10 12 15 9 nan nan nan nan nan nan nan nan nan nan nan nan nan 5 6 1 5 5 2
nan 18 15 16 22 21 17 17 10 11 15 22 23 22 21 17 14 13 14 12 15 15 16 16 14 13 13 16 12 10 nan nan nan nan nan nan nan nan nan nan nan 3 nan 3 4 5 8 7 5
nan 12 23 27 24 24 22 25 17 20 20 27 27 24 19 15 14 8 9 12 12 12 12 13 16 15 13 16 16 nan nan nan nan nan nan nan nan nan 2 1 nan nan 3 2 5 6 9 10 5
nan 27 10 23 24 19 18 18 26 29 26 26 22 nan 22 22 16 13 16 14 14 11 10 13 14 14 13 15 19 8 nan nan nan nan nan nan nan 5 4 1 4 6 5 1 1 4 7 8 6
nan nan 8 17 23 20 11 18 31 30 24 22 19 nan 20 18 21 17 14 14 12 10 12 12 11 12 9 10 14 14 nan nan nan nan nan 3 3 4 3 5 2 5 4 5 3 2 4 7 6
nan nan nan 13 20 nan 9 17 31 27 21 16 18 16 16 16 13 14 15 12 12 11 13 11 10 10 10 9 9 9 nan nan 8 7 6 5 2 1 4 6 4 4 7 6 4 1 1 1 4
nan nan nan nan 22 18 17 18 25 26 24 19 19 18 17 17 18 17 17 17 15 13 12 13 8 9 9 6 8 8 8 8 5 3 4 7 5 5 2 3 2 2 nan 3 3 3 2 2 1
nan nan nan nan 21 22 27 20 23 28 29 26 19 17 16 24 13 14 15 16 14 11 12 13 9 9 10 9 9 10 12 10 10 5 4 6 5 2 2 3 3 5 nan 3 4 10 12 7 2
nan nan nan nan nan 22 23 26 27 32 38 37 31 25 24 16 19 11 17 16 16 17 13 10 10 11 13 11 10 8 12 9 7 5 5 5 5 5 4 4 5 6 8 5 3 8 10 2 8
nan nan nan nan nan nan 24 10 24 26 17 23 35 31 24 19 28 19 12 17 16 18 20 17 14 13 12 13 6 3 6 7 7 5 2 7 4 8 5 6 6 8 9 7 6 3 8 6 6
nan nan nan nan nan nan 15 nan 12 28 16 26 30 21 23 19 30 27 9 12 15 16 16 16 18 16 15 14 10 10 10 10 11 6 6 11 14 19 18 20 11 10 8 6 6 6 6 8 7
nan nan nan nan nan nan nan nan 9 33 31 30 27 21 17 17 18 21 14 14 12 11 15 14 14 17 17 14 13 12 11 11 7 8 13 10 15 21 nan nan nan 7 9 6 2 3 6 12 14
nan nan nan nan nan nan nan nan nan 24 36 29 31 22 14 13 17 19 20 15 6 11 15 14 16 16 17 16 14 13 13 10 7 9 13 12 17 18 20 nan nan nan 8 12 9 5 4 9 3
nan nan nan nan nan nan nan 17 18 25 25 41 39 37 33 31 26 21 20 9 10 14 19 16 14 12 11 10 8 10 11 10 12 12 12 16 18 17 20 19 nan nan 18 11 9 11 13 16 2
nan nan nan nan nan nan nan 19 20 34 27 21 34 46 38 42 nan nan 21 17 6 6 15 20 18 14 12 12 13 10 11 10 10 13 12 13 16 16 17 19 19 nan nan 17 10 11 13 15 13
nan nan nan nan nan nan nan nan 11 25 17 22 29 35 38 24 30 21 18 20 8 6 13 18 19 18 16 16 14 15 16 14 16 16 15 12 13 13 13 14 17 16 12 11 10 10 12 15 11
nan nan nan nan nan nan 16 nan nan 16 28 30 42 35 33 32 39 25 14 23 27 10 11 10 15 19 18 12 13 14 13 15 15 18 22 21 17 15 15 11 12 13 14 12 11 11 13 15 11
nan nan nan nan nan nan nan nan 22 16 14 42 34 nan 34 41 33 33 18 nan 17 10 1 18 14 17 14 13 11 15 19 20 19 21 23 24 23 23 21 17 14 14 13 13 13 13 13 11 11
nan nan nan nan nan nan nan 15 33 24 25 24 34 35 41 38 31 39 33 nan nan 12 4 24 17 17 16 12 14 19 27 25 27 25 27 26 26 26 25 25 24 23 21 20 18 15 15 15 13
Wind_Direction
43 345 312 225 206 nan nan 112 18 357 22 58 nan nan nan 27 nan nan 339 nan 319 29 10 335 333 321 320 318 318 310 299 294 293 296 304 295 277 274 274 263 267 282 264 255 260 262 298 302 313
45 352 260 311 nan nan 93 96 331 353 350 325 nan nan nan nan 324 nan nan 330 322 356 5 343 337 324 317 321 321 320 312 302 300 302 312 304 294 295 293 282 285 276 278 287 289 304 291 299 305
270 250 315 nan nan nan 87 56 11 336 358 15 352 nan nan nan nan nan 328 327 318 330 340 350 342 339 326 326 326 328 328 315 306 314 317 318 316 324 330 310 312 297 286 270 317 313 330 326 305
46 nan 339 nan nan nan 68 110 317 329 318 nan nan nan nan nan nan 340 nan 328 332 352 346 337 340 337 336 334 331 329 322 323 322 316 315 324 332 334 355 346 325 284 246 134 256 302 330 322 325
0 304 5 25 nan nan 45 53 10 336 5 304 nan nan nan nan nan nan 338 343 333 347 359 340 336 335 328 327 329 322 316 319 323 315 320 325 332 322 348 353 315 302 289 269 120 129 259 256 322
289 350 355 358 20 48 25 30 345 324 323 323 327 332 58 nan nan nan nan 340 347 356 1 355 338 337 336 335 324 321 314 314 312 318 310 316 310 317 351 4 304 302 196 275 70 80 45 310 304
328 353 19 342 338 5 22 18 11 334 337 37 16 nan nan 344 349 344 335 328 333 342 349 351 344 342 340 330 334 332 321 310 304 302 308 297 310 350 346 330 321 335 294 231 52 46 36 9 348
nan 21 18 9 0 5 4 8 269 4 2 332 nan nan 10 347 328 328 323 321 324 348 344 342 350 342 321 345 344 344 320 302 293 285 277 280 278 271 262 253 216 16 315 226 19 44 45 34 31
9 344 19 nan 359 13 360 349 330 52 353 352 35 344 335 346 324 325 316 287 302 332 354 342 340 327 314 357 343 340 339 312 299 263 269 269 272 288 nan nan 248 101 351 11 68 56 41 62 41
nan nan 5 nan 28 23 28 350 2 17 1 2 325 333 333 345 342 340 344 347 349 349 12 357 338 349 354 351 325 317 305 272 282 nan nan nan 273 nan nan nan nan 195 34 38 63 69 74 93 240
nan nan nan 336 26 6 6 1 24 350 1 348 342 340 342 341 0 350 6 359 357 7 8 6 350 355 352 334 324 299 284 265 nan nan nan nan nan nan nan nan nan nan 209 146 85 96 200 211 271
30 355 335 317 316 57 61 18 360 13 4 345 341 335 344 346 1 347 11 20 358 15 20 10 8 352 354 359 346 345 nan nan nan nan nan nan nan nan nan nan nan nan nan 178 88 23 50 36 159
nan 1 339 1 353 355 8 360 343 340 348 351 341 345 357 1 8 6 15 17 2 23 14 19 15 15 7 5 3 77 nan nan nan nan nan nan nan nan nan nan nan 228 nan 218 104 39 40 63 117
nan 323 336 2 10 355 345 352 345 5 355 7 2 0 358 358 7 353 351 6 359 10 4 4 13 17 15 20 30 nan nan nan nan nan nan nan nan nan 115 35 nan nan 103 244 78 56 47 53 81
nan 298 318 353 6 343 339 6 359 10 7 6 7 nan 1 20 7 9 21 9 1 6 354 3 9 12 15 20 29 76 nan nan nan nan nan nan nan 59 76 313 323 317 269 157 127 94 69 49 53
nan nan 303 34 9 5 351 18 3 12 1 14 24 nan 359 11 9 20 23 18 4 359 15 355 6 12 17 33 42 57 nan nan nan nan nan 133 146 111 99 320 309 212 232 225 230 72 99 12 52
nan nan nan 12 47 nan 358 8 5 13 6 12 28 30 14 14 29 29 26 7 3 355 1 349 357 14 21 19 46 44 nan nan 47 46 34 23 1 132 148 84 84 136 221 205 214 233 9 110 74
nan nan nan nan 19 355 10 4 358 9 11 19 27 32 9 12 33 30 19 25 11 13 3 7 356 1 14 20 33 44 37 24 17 37 20 15 355 355 356 38 34 353 nan 212 235 302 230 244 37
nan nan nan nan 2 339 358 351 356 14 18 15 12 28 14 359 17 40 29 17 11 26 21 20 10 3 6 24 34 28 23 10 25 26 9 6 32 343 230 231 253 286 nan 312 307 288 231 226 247
nan nan nan nan nan 337 349 356 5 19 23 22 18 10 355 351 335 21 39 24 5 15 19 9 26 22 34 33 41 43 24 28 57 39 34 334 331 351 313 277 252 265 277 296 309 352 326 346 329
nan nan nan nan nan nan 303 2 359 14 20 27 6 5 0 356 351 343 45 44 30 44 38 33 35 33 44 35 42 54 51 59 74 66 351 309 323 293 262 284 272 273 268 275 291 331 352 346 332
nan nan nan nan nan nan 301 nan 358 327 359 12 355 356 350 342 341 322 6 55 44 34 17 28 39 43 51 47 45 34 42 41 43 21 317 302 311 325 333 300 258 233 250 275 287 315 342 317 351
nan nan nan nan nan nan nan nan 344 301 318 343 323 320 348 334 335 313 317 33 39 24 25 28 34 56 56 54 50 47 29 20 9 335 322 316 342 358 nan nan nan 255 273 248 266 250 297 286 279
nan nan nan nan nan nan nan nan nan 314 331 325 282 279 279 261 249 233 231 203 75 45 6 25 15 34 46 32 36 27 37 36 3 10 7 354 6 24 36 nan nan nan 347 339 50 37 332 281 271
nan nan nan nan nan nan nan 277 314 310 315 333 337 317 312 288 268 215 229 236 161 20 13 11 10 15 23 13 18 24 22 16 11 357 359 346 352 5 23 19 nan nan 22 350 12 0 338 333 240
nan nan nan nan nan nan nan 312 313 307 320 315 322 319 311 300 nan nan 220 218 225 43 38 0 3 343 355 1 356 358 27 16 359 343 337 340 337 346 357 354 1 nan nan 24 349 327 326 332 5
nan nan nan nan nan nan nan nan 276 306 336 310 276 255 246 255 292 270 282 192 202 355 8 5 352 350 347 351 342 338 352 348 352 353 332 319 321 332 344 340 342 351 6 10 0 337 318 320 343
nan nan nan nan nan nan 277 nan nan 284 295 270 302 272 292 301 276 230 170 172 194 173 340 2 335 341 338 326 324 330 330 336 328 328 318 321 317 319 318 323 325 330 331 335 334 330 330 337 331
nan nan nan nan nan nan nan nan 292 263 246 292 295 nan 306 316 291 279 230 nan 162 140 141 313 310 310 292 279 323 315 309 309 306 303 306 311 311 311 310 311 307 302 298 300 302 305 308 312 310
nan nan nan nan nan nan nan 270 277 287 283 281 289 320 301 303 300 258 241 nan nan 174 298 273 268 250 269 293 285 291 293 288 290 288 291 295 290 288 294 296 295 289 283 282 279 270 273 284 285